Torna al catalogo

EKRAN 8

AttivoComunicazioniGEO
NORAD 13056·PAYLOAD·🇷🇺 Russia

Lanciato Feb 5, 1982 da Baikonur Cosmodrome

Loading…

TLE

AggiornatoSource: Space-Track

Epoca: Sep 14, 2026, 12:35 UTC

1 13056U 82009A   26257.52488876 -.00000008  00000-0  00000-0 0  9993
2 13056   6.8618 295.7180 0028669 339.6835  88.9118  0.99949538119514

Traccia EKRAN 8 in tempo reale con AllMySat

Download on the App Store